Regional Weather Roundup
Issued by NWS Charleston, SC

Current Version | Previous Version | Graphics & Text | Print | Product List | Glossary Off
Versions: 1 2 3 4 5 6 7 8 9 10 11 12 13 14 15 16 17 18 19 20 21 22 23 24 25 26 27 28 29 30 31 32 33 34 35 36 37 38 39 40 41 42 43 44 45 46 47 48 49 50
000 ASUS42 KCHS 301527 RWRCHS REGIONAL WEATHER ROUNDUP NATIONAL WEATHER SERVICE CHARLESTON SC 1100 AM EDT THU MAR 30 2017 NOTE: "FAIR" INDICATES FEW OR NO CLOUDS BELOW 12,000 FEET WITH NO SIGNIFICANT WEATHER AND/OR OBSTRUCTIONS TO VISIBILITY. NOT ALL STATIONS ARE QUALITY CONTROLLED. USE DATA WITH CAUTION... ESPECIALLY DEWPOINT OBSERVATIONS. SCZ027-030-031-034>040-042>050-301600- ...SOUTHEAST SOUTH CAROLINA... CITY SKY/WX TMP DP RH WIND PRES REMARKS N CHARLESTON PTSUNNY 74 62 66 E15G26 30.06S WATERFRONT PRK N/A 68 65 90 E7 30.05R JOHNS ISLAND DRIZZLE 68 66 94 NE5 30.07R PINOPOLIS N/A 72 64 78 E7 29.99R MONCKS CORNER PTSUNNY 73 61 64 SE9 30.06S SUMMERVILLE PTSUNNY 73 63 68 SE8 30.06S BEAUFORT MCAS MOSUNNY 78 69 73 NE5 30.04R BEAUFORT ARPT FAIR 77 68 73 SE7 30.04R HILTON HEAD IS MOSUNNY 73 68 83 NE9 30.04S WALTERBORO PTSUNNY 77 64 65 SE7 30.05F ALLENDALE PTSUNNY 77 64 65 SE8 30.02S ...SOUTHERN MIDLANDS AND PEE DEE... CITY SKY/WX TMP DP RH WIND PRES REMARKS GEORGETOWN CLOUDY 70 59 68 E10 30.11S KINGSTREE CLOUDY 72 57 60 E12 30.08S ORANGEBURG CLOUDY 73 63 70 SE8 30.06S BARNWELL FAIR 77 66 69 SE7G15 30.03F AIKEN PTSUNNY 70 63 78 SE10 30.06F MANNING PTSUNNY 73 61 64 S5 30.07S COLUMBIA CLOUDY 71 61 70 E12 30.05S SUMTER CLOUDY 71 60 67 E10 30.06R FLORENCE CLOUDY 69 57 65 SE14 30.10R MYRTLE BEACH MOSUNNY 64 55 72 E16 30.11S N MYRTLE BEACH MOSUNNY 68 56 65 E16 30.11S $$ GAZ063-065-086>088-099>101-113>116-118-119-134>141-150-301600- ...SOUTHEAST GEORGIA... CITY SKY/WX TMP DP RH WIND PRES REMARKS SAVANNAH ARPT PTSUNNY 80 65 59 SE13 30.02S HUNTER AAF MOSUNNY 79 73 81 SE7 30.00S FORT STEWART LGT RAIN 72 66 83 NW8 30.01S STATESBORO PTSUNNY 74 68 82 SW7 30.04R SYLVANIA PTSUNNY N/A N/A N/A S5 30.04S CLAXTON RAIN N/A N/A N/A SE3 30.05R ...CSRA...CENTRAL AND FAR SOUTHEAST GEORGIA... CITY SKY/WX TMP DP RH WIND PRES REMARKS THOMSON CLOUDY 72 64 74 W7 30.07F AUGUSTA-BUSH CLOUDY 74 65 73 S5 30.02S AUGUSTA-DANIEL PTSUNNY 72 62 71 S10 30.03S SWAINSBORO CLOUDY 72 61 68 S8 30.04S VIDALIA CLOUDY 73 63 68 SE5 30.03S EASTMAN PTSUNNY 76 53 45 CALM 30.05S HAZLEHURST FAIR 76 67 72 CALM 30.02R ALMA MOSUNNY 75 61 61 CALM 30.01S WAYCROSS MOSUNNY 81 62 53 CALM 30.02R JESUP CLOUDY 75 64 69 CALM 30.03R BAXLEY FAIR 77 66 69 CALM 30.02S BRUNSWICK CLOUDY 77 68 73 E6 30.03S SAINT SIMONS CLOUDY 74 65 73 SE8 30.02R $$ SCZ027-028-034-036>038-045-046-048>050-GAZ119-141-301600- ...LAKE AND SUPPLEMENTAL COASTAL OBSERVATIONS... STATION/POSITION TIME TEMP WIND PRES WAVE SWELL AIR SEA DIR/SP/G HT/PER HT/PER/DIR (UTC) (F) (DEG/KT/KT) (MB) (FT/S) (FT/S/D) WINYAH BAY 1430 63 60/ 12 1019.0S LAKE MURRAY 1520 68 150/ 6/ 8 1016.9 ACE BASIN NERRS 1445 76 100/ 4 1017.0S FORT PULASKI 1500 67 66 90/ 8/ 9 1017.2 SAPELO ISLAND 1500 76 140/ 6 1017.0 $$ ANZ835-935-AMZ111-154-330-350-352-354-370-450-454-472-301600- ...C-MAN AND BUOY OBSERVATIONS... STATION/POSITION TIME TEMP WIND PRES WAVE SWELL AIR SEA DIR/SP/G HT/PER HT/PER/DIR (UTC) (F) (DEG/KT/KT) (MB) (FT/S) (FT/S/D) BUOY 41004 1450 72 70 90/ 16/ 19 1017.4R 5/10 3/ 90/10 BUOY 41008 1450 67 65 100/ 6/ 8 1016.4R 3/10 3/120/10 FOLLY BEACH CMAN 1500 66 80/ 9/ 10 1018.5R CAPERS NEARSHORE NOT AVBL FRIPP NEARSHORE 1508 66 64 70/ 6/ 10 1016.9R STATION/POSITION TIME TEMP WIND PRES WAVE SWELL AIR SEA DIR/SP/G HT/PER HT/PER/DIR (UTC) (F) (DEG/KT/KT) (MB) (FT/S) (FT/S/D) 5E ST. MARYS GA 1500 69 N/A 3/11 2/110/11 FRYING PAN BUOY 1510 70 74 90/ 14/ 17 1019.5 BUOY 41025 1450 63 77 40/ 16/ 19 1021.7R 7/ 9 5/ 70/ 9 CAPE LOOKOUT NC 1500 61 30/ 17/ 21 1021.3R BUOY 41002 1450 68 72 60/ 10/ 14 1019.8R 6/10 5/ 90/10 BUOY 41010 NOT AVBL ST AUGUSTINE FL 1500 70 67 160/ 6/ 7 1017.4R $$

USA.gov is the U.S. government's official web portal to all federal, state and local government web resources and services.